WSSL

Details ICAO WSSL (XSP)
Name Seletar
Region Singapore
Timezone Asia/Singapore (UTC+8.0)
Plans Departing 85
Arriving 70
Stats Elevation 36 ft / 11 m (AMSL)
Location 1.416427° 103.867299°
Runways 1
Magnetic Variation 0.216° E
Sunrise 2018-05-24 22:57:09 UTC / 2018-05-25 06:57:09 Local
Sunset 2018-05-25 11:08:36 UTC / 2018-05-25 19:08:36 Local
Advertisement - Login to hide

Runways

ID Width Length Bearing (true) Bearing (mag) Surface Threshold Offset Overrun Length
03 151 ft / 46 m 5,243 ft / 1,598 m 33.15° 32.93° Asphalt 0 ft / 0 m 197 ft / 60 m
21 151 ft / 46 m 5,243 ft / 1,598 m 213.15° 212.93° Asphalt 0 ft / 0 m 197 ft / 60 m

Map

Weather


0- 5 10 15 20 25 30 35+ Temperature / ° C

Clouds and Precipitation
Forecast for 2018-05-25 00:00 UTC. Updated 6 hours ago

Ground ~20,000 ft ~40,000 ft Winds

METAR

WSSL 250400Z 10005KT 060V150 9999 SCT020TCU BKN300 33/22 Q1008

TAF

Not found

Frequencies

Ground 121.60 MHz GND
Tower 118.45 MHz TWR
Approach 124.60 MHz SINGAPORE APP/DEP
Tower 130.20 MHz TWR
Approach 120.30 MHz SINGAPORE APP/DEP
Warning: Do not use this data for real-world aviation or navigation. No guarantee of current accuracy is given.